Regional Weather Roundup
Issued by NWS Raleigh/Durham, NC

Current Version | Previous Version | Graphics & Text | Print | Product List | Glossary On
Versions: 1 2 3 4 5 6 7 8 9 10 11 12 13 14 15 16 17 18 19 20 21 22 23 24 25 26 27
000
ASUS42 KRAH 300610
RWRRAH
NORTH CAROLINA WEATHER ROUNDUP
NATIONAL WEATHER SERVICE RALEIGH NC
200 AM EDT THU MAR 30 2017

NOTE: "FAIR" INDICATES FEW OR NO CLOUDS BELOW 12,000 FEET WITH NO
SIGNIFICANT WEATHER AND/OR OBSTRUCTIONS TO VISIBILITY.

NCZ001-053-055-056-065-067-300700-
WESTERN NORTH CAROLINA

CITY           SKY/WX    TMP DP  RH WIND       PRES   REMARKS
ASHEVILLE      CLEAR     55  49  80 CALM      30.07F
JEFFERSON      CLEAR     52  46  78 CALM      30.11S
MORGANTON      MOCLDY    57  51  80 E5        30.12S
HICKORY        MOCLDY    63  52  67 CALM      30.07R
RUTHERFORDTON  MOCLDY    63  50  63 CALM      30.06S
MOUNT AIRY     CLOUDY    63  53  69 NE6       30.12R
BOONE          CLEAR     45  45 100 CALM      30.12F
$$

NCZ021-022-025-041-071-084-088-300700-
CENTRAL NORTH CAROLINA

CITY           SKY/WX    TMP DP  RH WIND       PRES   REMARKS
CHARLOTTE      CLEAR     63  54  72 SE14      30.07R
GREENSBORO     PTCLDY    60  53  77 SE7       30.09R
WINSTON-SALEM  MOCLDY    60  51  72 E3        30.10R
RALEIGH-DURHAM MOCLDY    58  52  80 SE10G17   30.13R
FORT BRAGG     CLEAR     58  53  84 SE6       30.11R
FAYETTEVILLE   CLEAR     58  54  86 SE10      30.12R
BURLINGTON     PTCLDY    58  53  84 E5        30.10R
LAURINBURG     CLEAR     58  54  86 SE7       30.11R
$$

NCZ011-015-027-028-043-044-047-080-103-300700-
NORTHEASTERN NORTH CAROLINA

CITY           SKY/WX    TMP DP  RH WIND       PRES   REMARKS
ROCKY MT-WILSO CLEAR     52  50  93 CALM      30.15S
GREENVILLE     CLEAR     50  46  87 E3        30.16F
WASHINGTON     CLEAR     47  45  95 CALM      30.16S
ELIZABETH CITY CLEAR     47  45  93 E5        30.16F
MANTEO         CLEAR     48  46  90 E5        30.15F
CAPE HATTERAS  CLEAR     53  46  77 NE9       30.14F
$$

NCZ078-087-090-091-093-098-101-300700-
SOUTHEASTERN NORTH CAROLINA

CITY           SKY/WX    TMP DP  RH WIND       PRES   REMARKS
LUMBERTON      CLEAR     58  55  90 SE6       30.10F
GOLDSBORO      CLEAR     51  51 100 E5        30.13S
KINSTON        PTCLDY    52  50  94 CALM      30.15F
KENANSVILLE    CLEAR     52  50  93 CALM      30.14S
NEW BERN       CLEAR     52  49  89 E7        30.15F
CHERRY POINT   NOT AVBL
BEAUFORT       CLEAR     54  50  86 NE6       30.13F
JACKSONVILLE   CLEAR     55  49  80 E12       30.13
WILMINGTON     CLEAR     59  55  87 E8        30.12S
$$





USA.gov is the U.S. government's official web portal to all federal, state and local government web resources and services.